When you browse on this site, cookies collect data to enhance your experience and personalize the content and advertising you see.
Visit our Privacy Policy to learn more. By continuing to use the site, you agree to this use of cookies and data.
  • In Spain
  • List of Countries
  • For 7 days
  • Water Temperature
  • Satellite Maps
  • Weather Map
  • Weather Widgets
  • user-avatar
    Login

    Hourly Weather Doba

    Today, 22 April, Monday

    Time Temperature Precipitation Wind Pressure Humidity
    00:00 +33°C° 0 mm 1 mps 721 mmHg 23%
    01:00 +32°C° 0 mm 1 mps 722 mmHg 24%
    02:00 +32°C° 0 mm 1 mps 721 mmHg 29%
    03:00 +31°C° 0 mm 1 mps 721 mmHg 34%
    04:00 +30°C° 0 mm 1 mps 721 mmHg 38%
    05:00 +31°C° 0 mm 1 mps 722 mmHg 40%
    06:00 +31°C° 0 mm 1 mps 722 mmHg 41%
    07:00 +32°C° 0 mm 2 mps 723 mmHg 42%
    08:00 +35°C° 0 mm 1 mps 723 mmHg 36%
    09:00 +37°C° 0 mm 1 mps 723 mmHg 29%
    10:00 +41°C° 0 mm 1 mps 724 mmHg 23%
    11:00 +42°C° 0 mm 1 mps 723 mmHg 20%
    12:00 +43°C° 0 mm 2 mps 723 mmHg 16%
    13:00 +46°C° 0 mm 2 mps 722 mmHg 13%
    14:00 +45°C° 0 mm 2 mps 722 mmHg 12%
    15:00 +45°C° 0 mm 2 mps 721 mmHg 11%
    16:00 +45°C° 0 mm 2 mps 720 mmHg 10%
    17:00 +42°C° 0 mm 2 mps 721 mmHg 11%
    18:00 +41°C° 0 mm 1 mps 721 mmHg 12%
    19:00 +39°C° 0 mm 1 mps 721 mmHg 12%
    20:00 +37°C° 0 mm 1 mps 721 mmHg 12%
    21:00 +36°C° 0 mm 1 mps 722 mmHg 12%
    22:00 +36°C° 0 mm 1 mps 722 mmHg 12%
    23:00 +35°C° 0 mm 1 mps 722 mmHg 17%

    Tomorrow, 23 April, Tuesday

    Time Temperature Precipitation Wind Pressure Humidity
    00:00 +34°C° 0 mm 1 mps 722 mmHg 21%
    01:00 +33°C° 0 mm 1 mps 721 mmHg 25%
    02:00 +32°C° 0 mm 1 mps 721 mmHg 29%
    03:00 +32°C° 0 mm 1 mps 721 mmHg 32%
    04:00 +31°C° 0 mm 1 mps 721 mmHg 36%
    05:00 +31°C° 0 mm 1 mps 721 mmHg 37%
    06:00 +32°C° 0 mm 1 mps 722 mmHg 38%
    07:00 +32°C° 0 mm 1 mps 722 mmHg 39%
    08:00 +35°C° 0 mm 1 mps 723 mmHg 34%
    09:00 +39°C° 0 mm 1 mps 724 mmHg 30%
    10:00 +39°C° 0 mm 0 mps 724 mmHg 25%
    11:00 +44°C° 0 mm 1 mps 724 mmHg 21%
    12:00 +45°C° 0 mm 1 mps 723 mmHg 17%
    13:00 +47°C° 0 mm 1 mps 723 mmHg 14%
    14:00 +46°C° 0 mm 1 mps 722 mmHg 13%
    15:00 +45°C° 0 mm 1 mps 721 mmHg 13%
    16:00 +45°C° 0 mm 1 mps 720 mmHg 13%
    17:00 +43°C° 0 mm 1 mps 721 mmHg 14%
    18:00 +42°C° 0 mm 1 mps 721 mmHg 16%
    19:00 +40°C° 0 mm 1 mps 722 mmHg 17%
    20:00 +39°C° 0 mm 1 mps 722 mmHg 18%
    21:00 +37°C° 0 mm 1 mps 723 mmHg 19%
    22:00 +37°C° 0 mm 1 mps 723 mmHg 20%
    23:00 +36°C° 0 mm 1 mps 723 mmHg 22%

    Day after tomorrow, 24 April, Wednesday

    Time Temperature Precipitation Wind Pressure Humidity
    00:00 +35°C° 0 mm 1 mps 722 mmHg 25%
    01:00 +34°C° 0 mm 1 mps 722 mmHg 28%
    02:00 +34°C° 0 mm 1 mps 722 mmHg 32%
    03:00 +34°C° 0 mm 2 mps 721 mmHg 35%
    04:00 +34°C° 0 mm 2 mps 721 mmHg 38%
    05:00 +34°C° 0 mm 2 mps 722 mmHg 38%
    06:00 +34°C° 0 mm 2 mps 722 mmHg 38%
    07:00 +35°C° 0 mm 2 mps 723 mmHg 38%
    08:00 +37°C° 0 mm 1 mps 724 mmHg 32%
    09:00 +41°C° 0 mm 1 mps 724 mmHg 27%
    10:00 +42°C° 0 mm 0 mps 725 mmHg 21%
    11:00 +46°C° 0 mm 1 mps 724 mmHg 18%
    12:00 +46°C° 0 mm 1 mps 723 mmHg 15%
    13:00 +47°C° 0 mm 1 mps 723 mmHg 12%
    14:00 +48°C° 0 mm 2 mps 722 mmHg 12%
    15:00 +47°C° 0 mm 2 mps 721 mmHg 12%
    16:00 +47°C° 0 mm 2 mps 721 mmHg 11%
    17:00 +45°C° 0 mm 2 mps 721 mmHg 13%
    18:00 +42°C° 0 mm 1 mps 721 mmHg 14%
    19:00 +41°C° 0 mm 1 mps 722 mmHg 15%
    20:00 +40°C° 0 mm 1 mps 722 mmHg 16%
    21:00 +39°C° 0 mm 1 mps 723 mmHg 16%
    22:00 +37°C° 0 mm 1 mps 723 mmHg 17%
    23:00 +36°C° 0 mm 1 mps 723 mmHg 19%

    25 April, Thursday

    Time Temperature Precipitation Wind Pressure Humidity
    00:00 +35°C° 0 mm 1 mps 722 mmHg 22%
    01:00 +34°C° 0 mm 1 mps 722 mmHg 24%
    02:00 +34°C° 0 mm 1 mps 722 mmHg 26%
    03:00 +33°C° 0 mm 1 mps 722 mmHg 28%
    04:00 +33°C° 0 mm 1 mps 723 mmHg 30%
    05:00 +33°C° 0 mm 1 mps 723 mmHg 31%
    06:00 +34°C° 0 mm 1 mps 724 mmHg 32%
    07:00 +35°C° 0 mm 2 mps 724 mmHg 34%
    08:00 +38°C° 0 mm 2 mps 724 mmHg 29%
    09:00 +40°C° 0 mm 2 mps 724 mmHg 25%
    10:00 +43°C° 0 mm 2 mps 725 mmHg 20%
    11:00 +46°C° 0 mm 1 mps 724 mmHg 17%
    12:00 +45°C° 0 mm 0 mps 723 mmHg 13%
    13:00 +48°C° 0 mm 0 mps 723 mmHg 9%
    14:00 +46°C° 0 mm 0 mps 722 mmHg 9%
    15:00 +48°C° 0 mm 1 mps 721 mmHg 9%
    16:00 +47°C° 0 mm 2 mps 721 mmHg 10%
    17:00 +45°C° 0 mm 1 mps 721 mmHg 11%
    18:00 +43°C° 0 mm 1 mps 721 mmHg 12%
    19:00 +42°C° 0 mm 1 mps 722 mmHg 13%
    20:00 +41°C° 0 mm 1 mps 722 mmHg 14%
    21:00 +40°C° 0 mm 1 mps 722 mmHg 15%
    22:00 +37°C° 0 mm 0 mps 723 mmHg 15%
    23:00 +36°C° 0 mm 0 mps 722 mmHg 17%

    26 April, Friday

    Time Temperature Precipitation Wind Pressure Humidity
    00:00 +34°C° 0 mm 0 mps 722 mmHg 19%
    01:00 +33°C° 0 mm 0 mps 722 mmHg 20%
    02:00 +32°C° 0 mm 0 mps 722 mmHg 22%
    03:00 +33°C° 0 mm 1 mps 722 mmHg 23%
    04:00 +33°C° 0 mm 1 mps 722 mmHg 24%
    05:00 +33°C° 0 mm 1 mps 722 mmHg 23%
    06:00 +33°C° 0 mm 1 mps 723 mmHg 22%
    07:00 +33°C° 0 mm 1 mps 723 mmHg 21%
    08:00 +37°C° 0 mm 1 mps 724 mmHg 16%
    09:00 +41°C° 0 mm 1 mps 724 mmHg 11%
    10:00 +44°C° 0 mm 1 mps 724 mmHg 5%
    11:00 +45°C° 0 mm 1 mps 723 mmHg 4%
    12:00 +46°C° 0 mm 1 mps 723 mmHg 3%
    13:00 +49°C° 0 mm 2 mps 722 mmHg 2%
    14:00 +48°C° 0 mm 2 mps 721 mmHg 3%
    15:00 +48°C° 0 mm 2 mps 721 mmHg 3%
    16:00 +47°C° 0 mm 2 mps 720 mmHg 3%
    17:00 +45°C° 0 mm 2 mps 720 mmHg 3%
    18:00 +42°C° 0 mm 2 mps 720 mmHg 4%
    19:00 +39°C° 0 mm 2 mps 721 mmHg 5%
    20:00 +38°C° 0 mm 2 mps 721 mmHg 5%
    21:00 +38°C° 0 mm 2 mps 721 mmHg 5%
    22:00 +37°C° 0 mm 2 mps 721 mmHg 5%
    23:00 +35°C° 0 mm 1 mps 721 mmHg 5%

    27 April, Saturday

    Time Temperature Precipitation Wind Pressure Humidity
    00:00 +34°C° 0 mm 1 mps 721 mmHg 5%
    01:00 +33°C° 0 mm 1 mps 720 mmHg 5%
    02:00 +32°C° 0 mm 1 mps 720 mmHg 7%
    03:00 +31°C° 0 mm 1 mps 720 mmHg 8%
    04:00 +30°C° 0 mm 2 mps 720 mmHg 9%
    05:00 +30°C° 0 mm 2 mps 721 mmHg 10%
    06:00 +31°C° 0 mm 2 mps 722 mmHg 11%
    07:00 +31°C° 0 mm 2 mps 722 mmHg 11%
    08:00 +35°C° 0 mm 2 mps 723 mmHg 9%
    09:00 +39°C° 0 mm 2 mps 723 mmHg 7%
    10:00 +42°C° 0 mm 2 mps 723 mmHg 4%
    11:00 +45°C° 0 mm 2 mps 723 mmHg 4%
    12:00 +46°C° 0 mm 2 mps 722 mmHg 3%
    13:00 +48°C° 0 mm 2 mps 721 mmHg 3%
    14:00 +47°C° 0 mm 1 mps 721 mmHg 3%
    15:00 +47°C° 0 mm 1 mps 720 mmHg 3%
    16:00 +46°C° 0 mm 1 mps 720 mmHg 3%
    17:00 +44°C° 0 mm 1 mps 720 mmHg 4%
    18:00 +41°C° 0 mm 1 mps 720 mmHg 4%
    19:00 +39°C° 0 mm 1 mps 721 mmHg 5%
    20:00 +37°C° 0 mm 1 mps 721 mmHg 5%
    21:00 +36°C° 0 mm 1 mps 721 mmHg 5%
    22:00 +36°C° 0 mm 1 mps 722 mmHg 5%
    23:00 +36°C° 0 mm 2 mps 721 mmHg 9%
    Show more